Weather History for Covington, KY

Change the Weather History Date:

Saturday, November 10, 2012

  Actual Average Record
Temperature  
Mean Temperature 59 °F 48 °F  
Max Temperature 71 °F 57 °F 74 °F (1964)
Min Temperature 46 °F 38 °F 18 °F (1973)
Degree Days  
Heating Degree Days 6 18  
Month to date heating degree days 213 159  
Since 1 July heating degree days 641 521  
Cooling Degree Days 0 0  
Month to date cooling degree days 0 0  
Year to date cooling degree days 1439 1121  
Growing Degree Days 8 (Base 50)    
Moisture  
Dew Point 40 °F    
Average Humidity 51    
Maximum Humidity 66    
Minimum Humidity 35    
Precipitation  
Precipitation 0.00 in 0.10 in 1.40 in (1891)
Month to date precipitation 0.17 1.06  
Year to date precipitation 32.12 36.78  
Snow  
Snow 0.00 in 0.00 in 0.30 in (1948)
Month to date snowfall 0.0 0.1  
Since 1 July snowfall T 0.5  
Since 1 September snowfall T 0.5  
Snow Depth 0.00 in    
Sea Level Pressure  
Sea Level Pressure 30.16 in    
Wind  
Wind Speed 10 mph (South)    
Max Wind Speed 18 mph    
Max Gust Speed 24 mph    
Visibility 10 miles    
Events      
T = Trace of Precipitation, MM = Missing Value Source: NWS Daily Summary

Daily Weather History Graph

Daily Weather History Graph

Search for Another Location

Airport:

Trip Planner

Search our weather history database for the weather conditions in past years. The results will help you decide how hot, cold, wet, or windy it might be!

Date:

Astronomy

Nov. 10, 2012 Rise Set
Actual Time 7:16 AM EST 5:28 PM EST
Civil Twilight 6:48 AM EST 5:56 PM EST
Nautical Twilight 6:16 AM EST 6:28 PM EST
Astronomical Twilight 5:44 AM EST 6:59 PM EST
Moon 3:22 AM EST (11/10) 3:13 PM EST (11/10)
Length of Visible Light 11h 08m
Length of Day
10h 11m
Waning Crescent, 14% of the Moon is Illuminated
Nov 10
Waning Crescent
Nov 13
New
Nov 20
First Quarter
Nov 28
Full
Dec 6
Last Quarter

Hourly Weather History & Observations

Time (EST) Temp. Dew Point Humidity Pressure Visibility Wind Dir Wind Speed Gust Speed Precip Events Conditions
12:52 AM 50.0 °F 37.0 °F 61% 30.13 in 10.0 mi South 9.2 mph - N/A   Scattered Clouds
1:52 AM 50.0 °F 36.0 °F 59% 30.14 in 10.0 mi South 4.6 mph - N/A   Clear
2:52 AM 48.9 °F 36.0 °F 61% 30.16 in 10.0 mi South 5.8 mph - N/A   Mostly Cloudy
3:52 AM 50.0 °F 37.0 °F 61% 30.16 in 10.0 mi South 9.2 mph - N/A   Mostly Cloudy
5:52 AM 48.9 °F 37.0 °F 64% 30.19 in 10.0 mi South 8.1 mph - N/A   Mostly Cloudy
6:52 AM 46.9 °F 36.0 °F 66% 30.19 in 10.0 mi South 8.1 mph - N/A   Scattered Clouds
7:52 AM 50.0 °F 37.0 °F 61% 30.21 in 10.0 mi South 9.2 mph - N/A   Partly Cloudy
8:52 AM 53.1 °F 37.9 °F 57% 30.21 in 10.0 mi South 11.5 mph - N/A   Partly Cloudy
9:52 AM 57.9 °F 39.9 °F 51% 30.20 in 10.0 mi SSW 11.5 mph 19.6 mph N/A   Clear
10:52 AM 60.1 °F 41.0 °F 49% 30.20 in 10.0 mi SSW 12.7 mph - N/A   Mostly Cloudy
11:52 AM 64.0 °F 44.1 °F 48% 30.18 in 10.0 mi SSW 12.7 mph 20.7 mph N/A   Scattered Clouds
12:52 PM 66.9 °F 45.0 °F 45% 30.15 in 10.0 mi SSW 13.8 mph 21.9 mph N/A   Partly Cloudy
1:52 PM 70.0 °F 45.0 °F 41% 30.14 in 10.0 mi South 13.8 mph 20.7 mph N/A   Clear
2:52 PM 71.1 °F 45.0 °F 39% 30.12 in 10.0 mi SSW 13.8 mph 19.6 mph N/A   Clear
3:52 PM 71.1 °F 42.1 °F 35% 30.11 in 10.0 mi South 12.7 mph - N/A   Clear
4:52 PM 68.0 °F 42.1 °F 39% 30.13 in 10.0 mi South 12.7 mph - N/A   Clear
5:52 PM 62.1 °F 42.1 °F 48% 30.15 in 10.0 mi South 9.2 mph - N/A   Clear
6:52 PM 57.9 °F 42.1 °F 56% 30.17 in 10.0 mi South 8.1 mph - N/A   Clear
7:52 PM 57.9 °F 41.0 °F 53% 30.17 in 10.0 mi South 6.9 mph - N/A   Clear
8:52 PM 59.0 °F 39.9 °F 49% 30.17 in 10.0 mi South 8.1 mph - N/A   Partly Cloudy
9:52 PM 57.9 °F 39.0 °F 49% 30.17 in 10.0 mi South 8.1 mph - N/A   Partly Cloudy
10:52 PM 57.0 °F 37.9 °F 49% 30.17 in 10.0 mi South 9.2 mph - N/A   Clear
11:52 PM 53.1 °F 37.9 °F 57% 30.16 in 10.0 mi South 9.2 mph - N/A   Clear